TimeCST,TemperatureF,Dew PointF,Humidity,Sea Level PressureIn,VisibilityMPH,Wind Direction,Wind SpeedMPH,Gust SpeedMPH,PrecipitationIn,Events,Conditions,WindDirDegrees,DateUTC
12:15 AM,51.8,35.6,54,30.00,10.0,North,10.4,16.1,N/A,,Mostly Cloudy,10,2012-12-11 06:15:00
12:35 AM,50.0,37.4,62,30.01,10.0,North,6.9,-,N/A,,Overcast,350,2012-12-11 06:35:00
12:55 AM,50.0,33.8,54,30.01,10.0,North,8.1,17.3,N/A,,Mostly Cloudy,10,2012-12-11 06:55:00
1:15 AM,48.2,33.8,58,30.00,10.0,NNE,9.2,17.3,N/A,,Partly Cloudy,20,2012-12-11 07:15:00
1:35 AM,48.2,33.8,58,29.99,10.0,NNE,12.7,18.4,N/A,,Clear,30,2012-12-11 07:35:00
1:55 AM,48.2,33.8,58,30.01,10.0,NNE,10.4,17.3,N/A,,Clear,20,2012-12-11 07:55:00
2:15 AM,48.2,35.6,62,30.01,10.0,NNE,8.1,-,N/A,,Clear,30,2012-12-11 08:15:00
2:35 AM,48.2,35.6,62,30.02,10.0,NNE,10.4,17.3,N/A,,Clear,30,2012-12-11 08:35:00
2:55 AM,48.2,33.8,58,30.01,10.0,NNE,11.5,17.3,N/A,,Clear,20,2012-12-11 08:55:00
3:15 AM,46.4,33.8,62,30.03,10.0,NNE,8.1,17.3,N/A,,Clear,20,2012-12-11 09:15:00
3:35 AM,46.4,35.6,66,30.04,10.0,North,9.2,-,N/A,,Mostly Cloudy,10,2012-12-11 09:35:00
3:55 AM,46.4,35.6,66,30.03,10.0,NNE,8.1,19.6,N/A,,Partly Cloudy,20,2012-12-11 09:55:00
4:15 AM,46.4,35.6,66,30.03,10.0,NNE,11.5,-,N/A,,Clear,20,2012-12-11 10:15:00
4:35 AM,46.4,33.8,62,30.03,10.0,NNE,8.1,18.4,N/A,,Partly Cloudy,20,2012-12-11 10:35:00
4:55 AM,44.6,33.8,66,30.04,10.0,NNE,9.2,17.3,N/A,,Partly Cloudy,20,2012-12-11 10:55:00
5:15 AM,44.6,35.6,71,30.04,10.0,NNE,8.1,-,N/A,,Partly Cloudy,20,2012-12-11 11:15:00
5:35 AM,44.6,33.8,66,30.05,10.0,NNE,10.4,16.1,N/A,,Unknown,30,2012-12-11 11:35:00
5:55 AM,44.6,33.8,66,30.05,10.0,NNE,8.1,17.3,N/A,,Clear,20,2012-12-11 11:55:00
6:15 AM,44.6,32.0,61,30.05,10.0,NNE,8.1,-,N/A,,Clear,20,2012-12-11 12:15:00
6:35 AM,44.6,32.0,61,30.06,10.0,NNE,6.9,-,N/A,,Clear,20,2012-12-11 12:35:00
6:55 AM,44.6,30.2,57,30.06,10.0,NNE,6.9,-,N/A,,Clear,20,2012-12-11 12:55:00
7:15 AM,44.6,30.2,57,30.08,10.0,NNE,6.9,-,N/A,,Clear,20,2012-12-11 13:15:00
7:35 AM,44.6,32.0,61,30.08,10.0,NNE,9.2,-,N/A,,Clear,20,2012-12-11 13:35:00
8:15 AM,44.6,32.0,61,30.10,10.0,NNE,10.4,-,N/A,,Clear,20,2012-12-11 14:15:00
8:35 AM,44.6,30.2,57,30.11,10.0,North,6.9,-,N/A,,Clear,10,2012-12-11 14:35:00
8:55 AM,44.6,32.0,61,30.12,10.0,North,6.9,17.3,N/A,,Clear,10,2012-12-11 14:55:00
9:15 AM,46.4,32.0,57,30.12,10.0,NNE,8.1,-,N/A,,Clear,20,2012-12-11 15:15:00
9:35 AM,46.4,33.8,62,30.12,10.0,NNW,5.8,-,N/A,,Clear,340,2012-12-11 15:35:00
9:55 AM,46.4,32.0,57,30.12,10.0,North,6.9,16.1,N/A,,Clear,10,2012-12-11 15:55:00
10:15 AM,46.4,33.8,62,30.12,10.0,North,5.8,-,N/A,,Clear,10,2012-12-11 16:15:00
10:35 AM,46.4,33.8,62,30.12,10.0,North,8.1,-,N/A,,Clear,10,2012-12-11 16:35:00
10:55 AM,46.4,33.8,62,30.11,10.0,NNW,6.9,-,N/A,,Clear,330,2012-12-11 16:55:00
11:15 AM,46.4,33.8,62,30.12,10.0,North,6.9,-,N/A,,Clear,350,2012-12-11 17:15:00
11:35 AM,46.4,33.8,62,30.11,10.0,North,4.6,-,N/A,,Clear,10,2012-12-11 17:35:00
11:55 AM,46.4,33.8,62,30.10,10.0,NW,6.9,-,N/A,,Clear,320,2012-12-11 17:55:00
12:15 PM,48.2,33.8,58,30.09,10.0,NW,8.1,-,N/A,,Clear,320,2012-12-11 18:15:00
12:35 PM,48.2,33.8,58,30.08,10.0,North,6.9,-,N/A,,Clear,10,2012-12-11 18:35:00
12:55 PM,48.2,33.8,58,30.07,10.0,NNW,4.6,-,N/A,,Clear,340,2012-12-11 18:55:00
1:15 PM,48.2,33.8,58,30.06,10.0,NNE,9.2,-,N/A,,Clear,30,2012-12-11 19:15:00
1:35 PM,48.2,33.8,58,30.06,10.0,NNE,9.2,-,N/A,,Clear,20,2012-12-11 19:35:00
1:55 PM,48.2,33.8,58,30.06,10.0,NNE,6.9,-,N/A,,Clear,20,2012-12-11 19:55:00
2:15 PM,48.2,33.8,58,30.06,10.0,NNE,8.1,-,N/A,,Clear,20,2012-12-11 20:15:00
2:35 PM,48.2,33.8,58,30.06,10.0,NNE,6.9,-,N/A,,Clear,20,2012-12-11 20:35:00
2:55 PM,48.2,33.8,58,30.07,10.0,North,6.9,-,N/A,,Clear,360,2012-12-11 20:55:00
3:15 PM,48.2,33.8,58,30.09,10.0,North,4.6,-,N/A,,Clear,360,2012-12-11 21:15:00
3:35 PM,48.2,33.8,58,30.10,10.0,NNE,5.8,-,N/A,,Clear,20,2012-12-11 21:35:00
3:55 PM,48.2,33.8,58,30.10,10.0,North,6.9,-,N/A,,Clear,10,2012-12-11 21:55:00
4:15 PM,48.2,33.8,58,30.10,10.0,NNE,6.9,-,N/A,,Clear,20,2012-12-11 22:15:00
4:35 PM,48.2,33.8,58,30.10,10.0,NNE,6.9,-,N/A,,Clear,20,2012-12-11 22:35:00
4:55 PM,48.2,33.8,58,30.10,10.0,NNE,9.2,-,N/A,,Clear,30,2012-12-11 22:55:00
5:15 PM,48.2,33.8,58,30.11,10.0,NNE,9.2,-,N/A,,Clear,30,2012-12-11 23:15:00
5:35 PM,46.4,35.6,66,30.11,10.0,North,8.1,-,N/A,,Clear,10,2012-12-11 23:35:00
5:55 PM,46.4,33.8,62,30.11,10.0,NNE,9.2,-,N/A,,Clear,30,2012-12-11 23:55:00
6:15 PM,46.4,33.8,62,30.11,10.0,North,6.9,-,N/A,,Clear,360,2012-12-12 00:15:00
6:35 PM,46.4,35.6,66,30.12,10.0,NNE,9.2,-,N/A,,Clear,20,2012-12-12 00:35:00
6:55 PM,46.4,33.8,62,30.11,10.0,NNE,8.1,16.1,N/A,,Clear,20,2012-12-12 00:55:00
7:15 PM,46.4,33.8,62,30.12,10.0,NNE,8.1,-,N/A,,Clear,20,2012-12-12 01:15:00
7:35 PM,46.4,33.8,62,30.14,10.0,NNE,11.5,16.1,N/A,,Clear,30,2012-12-12 01:35:00
7:55 PM,46.4,33.8,62,30.14,10.0,NNE,9.2,-,N/A,,Clear,30,2012-12-12 01:55:00
8:15 PM,46.4,33.8,62,30.15,10.0,NNE,6.9,16.1,N/A,,Clear,30,2012-12-12 02:15:00
8:35 PM,44.6,33.8,66,30.17,10.0,NNE,6.9,-,N/A,,Clear,20,2012-12-12 02:35:00
8:55 PM,44.6,33.8,66,30.18,10.0,NNE,6.9,-,N/A,,Clear,20,2012-12-12 02:55:00
9:15 PM,44.6,33.8,66,30.18,10.0,NNE,8.1,-,N/A,,Clear,20,2012-12-12 03:15:00
9:35 PM,44.6,33.8,66,30.16,10.0,North,8.1,-,N/A,,Clear,10,2012-12-12 03:35:00
9:55 PM,44.6,33.8,66,30.16,10.0,NE,8.1,-,N/A,,Clear,40,2012-12-12 03:55:00
10:15 PM,44.6,33.8,66,30.17,10.0,NNE,5.8,-,N/A,,Clear,30,2012-12-12 04:15:00
10:35 PM,44.6,33.8,66,30.18,10.0,NNE,5.8,-,N/A,,Clear,20,2012-12-12 04:35:00
10:55 PM,44.6,32.0,61,30.19,10.0,NE,6.9,-,N/A,,Mostly Cloudy,50,2012-12-12 04:55:00
11:15 PM,44.6,30.2,57,30.17,10.0,NNE,6.9,-,N/A,,Scattered Clouds,30,2012-12-12 05:15:00
11:35 PM,44.6,30.2,57,30.18,10.0,ENE,6.9,-,N/A,,Scattered Clouds,60,2012-12-12 05:35:00
11:55 PM,44.6,32.0,61,30.17,10.0,NE,6.9,-,N/A,,Mostly Cloudy,50,2012-12-12 05:55:00